Fayetteville, NC

6:21 PM EST on February 22, 2018 (GMT -0500)
Fayetteville Regional-Grannis

Weather History for KFAY - June, 2013

Change the Weather History Date:

Thursday, June 20, 2013

  Actual Average Record
Temperature  
Mean Temperature 74 °F 79 °F  
Max Temperature 85 °F 89 °F 102 °F (1933)
Min Temperature 63 °F 69 °F 52 °F (1938)
Degree Days  
Heating Degree Days 0 0  
Month to date heating degree days 0 0  
Since 1 June heating degree days 0 0  
Since 1 July heating degree days 2762 2732  
Cooling Degree Days 9 14  
Month to date cooling degree days 250 245  
Year to date cooling degree days 499 529  
Since 1 June cooling degree days 250 245  
Growing Degree Days 23 (Base 50)    
Moisture  
Dew Point 61 °F    
Average Humidity 70    
Maximum Humidity 100    
Minimum Humidity 40    
Precipitation  
Precipitation 0.00 in 0.15 in 2.73 in (1957)
Month to date precipitation 6.41 2.84  
Year to date precipitation 19.75 18.51  
Sea Level Pressure  
Sea Level Pressure 30.16 in    
Wind  
Wind Speed 7 mph (NE)    
Max Wind Speed 16 mph    
Max Gust Speed 21 mph    
Visibility 9 miles    
Events      
T = Trace of Precipitation, MM = Missing Value Source: NWS Daily Summary

Daily Weather History Graph

Daily Weather History Graph

Search for Another Location

Airport or City:

Trip Planner

Search our weather history database for the weather conditions in past years. The results will help you decide how hot, cold, wet, or windy it might be!

Date:

Astronomy

Jun. 20, 2013 Rise Set
Actual Time 6:01 AM EDT 8:32 PM EDT
Civil Twilight 5:32 AM EDT 9:02 PM EDT
Nautical Twilight 4:55 AM EDT 9:39 PM EDT
Astronomical Twilight 4:14 AM EDT 10:19 PM EDT
Moon 5:36 PM EDT (6/20) 3:21 AM EDT (6/20)
Length of Visible Light 15h 30m
Length of Day
14h 30m
Waxing Gibbous, 89% of the Moon is Illuminated
Jun 20
Waxing Gibbous
Jun 23
Full
Jun 30
Last Quarter
Jul 8
New
Jul 15
First Quarter

Hourly Weather History & Observations

Time (EDT) Temp. Heat Index Dew Point Humidity Pressure Visibility Wind Dir Wind Speed Gust Speed Precip Events Conditions
12:53 AM 69.1 °F - 64.9 °F 87% 30.10 in 10.0 mi ENE 4.6 mph - N/A   Clear
1:53 AM 66.9 °F - 64.9 °F 93% 30.11 in 9.0 mi Calm Calm - N/A   Clear
2:53 AM 66.0 °F - 64.0 °F 93% 30.11 in 9.0 mi NE 3.5 mph - N/A   Clear
3:53 AM 64.9 °F - 63.0 °F 93% 30.11 in 8.0 mi NNE 4.6 mph - N/A   Clear
4:53 AM 64.9 °F - 63.0 °F 93% 30.12 in 7.0 mi NE 4.6 mph - N/A   Clear
5:53 AM 63.0 °F - 62.1 °F 97% 30.13 in 4.0 mi NNE 3.5 mph - N/A   Partly Cloudy
6:06 AM 62.6 °F - 62.6 °F 100% 30.15 in 2.0 mi NNE 5.8 mph - N/A   Clear
6:38 AM 64.4 °F - 62.6 °F 94% 30.16 in 3.0 mi NNE 8.1 mph - N/A   Partly Cloudy
6:53 AM 66.0 °F - 64.0 °F 93% 30.15 in 4.0 mi NNE 10.4 mph - N/A   Mostly Cloudy
7:53 AM 68.0 °F - 64.0 °F 87% 30.17 in 9.0 mi NNE 9.2 mph - N/A   Clear
8:53 AM 71.1 °F - 62.1 °F 73% 30.19 in 10.0 mi NNE 11.5 mph - N/A   Clear
9:53 AM 75.0 °F - 60.1 °F 60% 30.19 in 10.0 mi NE 9.2 mph - N/A   Clear
10:53 AM 78.1 °F - 59.0 °F 52% 30.19 in 10.0 mi NE 9.2 mph - N/A   Clear
11:53 AM 80.1 °F 80.6 °F 57.9 °F 47% 30.19 in 10.0 mi NNE 6.9 mph - N/A   Clear
12:53 PM 82.0 °F 82.1 °F 59.0 °F 45% 30.19 in 10.0 mi NE 8.1 mph 19.6 mph N/A   Clear
1:53 PM 84.0 °F 83.8 °F 59.0 °F 43% 30.18 in 10.0 mi NE 10.4 mph 20.7 mph N/A   Clear
2:53 PM 84.0 °F 83.5 °F 57.9 °F 41% 30.18 in 10.0 mi ENE 6.9 mph - N/A   Clear
3:53 PM 84.9 °F 84.4 °F 59.0 °F 41% 30.17 in 10.0 mi NE 6.9 mph - N/A   Clear
4:53 PM 84.9 °F 84.2 °F 57.9 °F 40% 30.16 in 10.0 mi NE 9.2 mph - N/A   Clear
5:53 PM 84.0 °F 83.8 °F 59.0 °F 43% 30.14 in 10.0 mi NE 5.8 mph - N/A   Clear
6:53 PM 82.0 °F 82.4 °F 60.1 °F 47% 30.15 in 10.0 mi NE 10.4 mph - N/A   Partly Cloudy
7:53 PM 79.0 °F - 61.0 °F 54% 30.16 in 10.0 mi NE 5.8 mph - N/A   Clear
8:53 PM 75.0 °F - 61.0 °F 62% 30.17 in 10.0 mi NE 5.8 mph - N/A   Clear
9:53 PM 72.0 °F - 61.0 °F 68% 30.18 in 10.0 mi NE 4.6 mph - N/A   Clear
10:53 PM 70.0 °F - 62.1 °F 76% 30.19 in 10.0 mi NE 5.8 mph - N/A   Clear
11:53 PM 68.0 °F - 59.0 °F 73% 30.21 in 10.0 mi NE 4.6 mph - N/A   Clear